Weather History for EGUL - September, 2013

Change the Weather History Date:

Sunday, September 22, 2013

  Actual Average (WUND) Record (WUND)
Temperature  
Mean Temperature 64 °F -  
Max Temperature 74 °F - - (-1)
Min Temperature 55 °F - - (-1)
Growing Degree Days 14 (Base 50)    
Moisture  
Dew Point 58 °F    
Average Humidity 95    
Maximum Humidity 100    
Minimum Humidity 57    
Precipitation  
Precipitation 0.00 in - - ()
Sea Level Pressure  
Sea Level Pressure 30.31 in    
Wind  
Wind Speed 5 mph ()    
Max Wind Speed 12 mph    
Max Gust Speed -    
Visibility 3.2 miles    
Events Fog    
Averages and records for this station are not official NWS values.
T = Trace of Precipitation, MM = Missing Value Source: Averaged Metar Reports

Daily Weather History Graph

Daily Weather History Graph

Search for Another Location

Airport or City:

Trip Planner

Search our weather history database for the weather conditions in past years. The results will help you decide how hot, cold, wet, or windy it might be!

Date:

Astronomy

Sep. 22, 2013 Rise Set
Actual Time 6:43 AM BST 6:56 PM BST
Civil Twilight 6:09 AM BST 7:29 PM BST
Nautical Twilight 5:29 AM BST 8:10 PM BST
Astronomical Twilight 4:47 AM BST 8:52 PM BST
Moon 8:05 PM BST (9/22) 10:17 AM BST (9/22)
Length of Visible Light 13h 20m
Length of Day
12h 12m
Waning Gibbous, 90% of the Moon is Illuminated
Sep 22
Waning Gibbous
Sep 27
Last Quarter
Oct 5
New
Oct 12
First Quarter
Oct 19
Full

Hourly Weather History & Observations

Time (BST) Temp. Dew Point Humidity Pressure Visibility Wind Dir Wind Speed Gust Speed Precip Events Conditions
12:58 AM 57.7 °F 57.7 °F 100% 30.28 in 6.2 mi SW 3.5 mph - N/A   Clear
1:58 AM 57.6 °F 57.6 °F 100% 30.28 in 6.2 mi South 2.3 mph - N/A   Clear
2:58 AM 57.0 °F 57.0 °F 100% 30.29 in 6.2 mi SSW 4.6 mph - N/A   Clear
3:39 AM 55.4 °F 55.4 °F 100% 30.28 in 2.5 mi South 3.5 mph - N/A   Clear
3:41 AM 55.4 °F 55.4 °F 100% 30.28 in - SSW 2.3 mph - N/A   Clear
3:42 AM 55.4 °F 55.4 °F 100% 30.28 in - SSW 3.5 mph - N/A   Clear
3:45 AM 55.4 °F 55.4 °F 100% 30.28 in 1.7 mi SSW 3.5 mph - N/A   Clear
3:48 AM 55.4 °F 55.4 °F 100% 30.28 in 1.5 mi SSW 3.5 mph - N/A   Clear
3:50 AM 55.4 °F 55.4 °F 100% 30.28 in 1.5 mi SSW 3.5 mph - N/A   Clear
3:51 AM 55.4 °F 55.4 °F 100% 30.28 in 1.2 mi SW 3.5 mph - N/A   Clear
3:54 AM 55.4 °F 55.4 °F 100% 30.28 in 1.0 mi SSW 3.5 mph - N/A   Clear
3:57 AM 55.4 °F 55.4 °F 100% 30.28 in 0.7 mi SSW 3.5 mph - N/A   Clear
3:58 AM 55.4 °F 55.4 °F 100% 30.29 in 0.7 mi SSW 3.5 mph - N/A   Clear
4:04 AM 55.4 °F 55.4 °F 100% 30.28 in 1.0 mi SSW 4.6 mph - N/A   Clear
4:07 AM 55.4 °F 55.4 °F 100% 30.28 in 1.2 mi SSW 4.6 mph - N/A   Clear
4:08 AM 55.4 °F 55.4 °F 100% 30.28 in 1.2 mi SSW 5.8 mph - N/A   Clear
4:09 AM 55.4 °F 55.4 °F 100% 30.28 in 1.5 mi SSW 5.8 mph - N/A   Clear
4:10 AM 55.4 °F 55.4 °F 100% 30.28 in 1.7 mi SSW 5.8 mph - N/A   Clear
4:11 AM 55.4 °F 55.4 °F 100% 30.28 in - SSW 5.8 mph - N/A   Clear
4:12 AM 55.4 °F 55.4 °F 100% 30.28 in 2.5 mi SSW 5.8 mph - N/A   Clear
4:13 AM 55.4 °F 55.4 °F 100% 30.28 in 3.1 mi SSW 5.8 mph - N/A   Clear
4:33 AM 55.4 °F 55.4 °F 100% 30.29 in 2.5 mi SW 4.6 mph - N/A   Partly Cloudy
4:35 AM 55.4 °F 55.4 °F 100% 30.29 in - SW 4.6 mph - N/A   Partly Cloudy
4:36 AM 55.4 °F 55.4 °F 100% 30.29 in 1.7 mi SW 4.6 mph - N/A   Scattered Clouds
4:38 AM 55.4 °F 55.4 °F 100% 30.29 in 1.5 mi SSW 4.6 mph - N/A   Scattered Clouds
4:39 AM 55.4 °F 55.4 °F 100% 30.29 in 1.5 mi SSW 4.6 mph - N/A   Scattered Clouds
4:41 AM 55.4 °F 55.4 °F 100% 30.29 in 1.2 mi SSW 3.5 mph - N/A   Scattered Clouds
4:42 AM 55.4 °F 55.4 °F 100% 30.29 in 1.5 mi SSW 4.6 mph - N/A   Scattered Clouds
4:46 AM 55.4 °F 55.4 °F 100% 30.29 in 1.5 mi SSW 4.6 mph - N/A   Scattered Clouds
4:47 AM 55.4 °F 55.4 °F 100% 30.29 in 1.7 mi SSW 4.6 mph - N/A   Scattered Clouds
4:48 AM 55.4 °F 55.4 °F 100% 30.29 in - SSW 4.6 mph - N/A   Scattered Clouds
4:49 AM 55.4 °F 55.4 °F 100% 30.29 in - SSW 4.6 mph - N/A   Scattered Clouds
4:50 AM 55.4 °F 55.4 °F 100% 30.29 in 2.5 mi SSW 4.6 mph - N/A   Scattered Clouds
4:52 AM 55.4 °F 55.4 °F 100% 30.29 in 3.1 mi SSW 4.6 mph - N/A   Mostly Cloudy
4:57 AM 55.4 °F 55.4 °F 100% 30.29 in 2.5 mi SSW 4.6 mph - N/A   Mostly Cloudy
4:58 AM 55.4 °F 55.4 °F 100% 30.30 in - SSW 4.6 mph - N/A   Mostly Cloudy
5:00 AM 55.4 °F 55.4 °F 100% 30.29 in 1.7 mi SSW 5.8 mph - N/A   Mostly Cloudy
5:02 AM 55.4 °F 55.4 °F 100% 30.29 in 1.5 mi SW 5.8 mph - N/A   Mostly Cloudy
5:04 AM 55.4 °F 55.4 °F 100% 30.29 in 1.7 mi SW 5.8 mph - N/A   Mostly Cloudy
5:06 AM 55.4 °F 55.4 °F 100% 30.29 in - SSW 5.8 mph - N/A   Mostly Cloudy
5:07 AM 55.4 °F 55.4 °F 100% 30.29 in 2.5 mi SSW 5.8 mph - N/A   Mostly Cloudy
5:09 AM 55.4 °F 55.4 °F 100% 30.29 in 3.1 mi SSW 5.8 mph - N/A   Mostly Cloudy
5:23 AM 55.4 °F 55.4 °F 100% 30.29 in 6.2 mi SW 5.8 mph - N/A   Mostly Cloudy
5:32 AM 57.2 °F 57.2 °F 100% 30.30 in 6.2 mi SW 5.8 mph - N/A   Mostly Cloudy
5:40 AM 57.2 °F 57.2 °F 100% 30.30 in 6.2 mi SW 6.9 mph - N/A   Mostly Cloudy
5:54 AM 57.2 °F 57.2 °F 100% 30.30 in 2.5 mi WSW 6.9 mph - N/A   Overcast
5:55 AM 57.2 °F 57.2 °F 100% 30.30 in 1.7 mi WSW 6.9 mph - N/A   Overcast
5:56 AM 57.2 °F 57.2 °F 100% 30.30 in 1.5 mi WSW 6.9 mph - N/A   Overcast
5:57 AM 57.2 °F 57.2 °F 100% 30.30 in 1.2 mi WSW 5.8 mph - N/A   Overcast
5:58 AM 57.2 °F 57.2 °F 100% 30.31 in 1.0 mi SW 5.8 mph - N/A   Overcast
6:00 AM 57.2 °F 57.2 °F 100% 30.30 in 0.7 mi SW 5.8 mph - N/A   Overcast
6:02 AM 57.2 °F 57.2 °F 100% 30.30 in 0.7 mi SW 5.8 mph - N/A   Mist
6:06 AM 57.2 °F 57.2 °F 100% 30.30 in 0.5 mi SW 5.8 mph - N/A Fog Fog
6:08 AM 57.2 °F 57.2 °F 100% 30.30 in 0.5 mi SW 5.8 mph - N/A Fog Fog
6:36 AM 59.0 °F 59.0 °F 100% 30.30 in 0.2 mi SW 6.9 mph - N/A Fog Fog
6:42 AM 59.0 °F 59.0 °F 100% 30.31 in - SW 6.9 mph - N/A Fog Fog
6:45 AM 59.0 °F 59.0 °F 100% 30.31 in 0.2 mi SW 5.8 mph - N/A Fog Fog
6:58 AM 58.3 °F 58.3 °F 100% 30.32 in 0.2 mi SW 5.8 mph - N/A Fog Fog
7:48 AM 59.0 °F 59.0 °F 100% 30.32 in 0.5 mi SW 6.9 mph - N/A Fog Fog
7:49 AM 59.0 °F 59.0 °F 100% 30.32 in 0.5 mi SW 6.9 mph - N/A Fog Fog
7:58 AM 58.5 °F 58.5 °F 100% 30.33 in 0.5 mi SW 5.8 mph - N/A Fog Fog
8:02 AM 59.0 °F 59.0 °F 100% 30.33 in 0.5 mi SW 6.9 mph - N/A Fog Fog
8:16 AM 59.0 °F 59.0 °F 100% 30.33 in 0.5 mi SW 5.8 mph - N/A Fog Fog
8:19 AM 59.0 °F 59.0 °F 100% 30.33 in 0.7 mi SW 5.8 mph - N/A   Mist
8:26 AM 59.0 °F 59.0 °F 100% 30.33 in 0.7 mi SW 5.8 mph - N/A   Mist
8:31 AM 59.0 °F 59.0 °F 100% 30.33 in 1.0 mi SW 5.8 mph - N/A   Mist
8:33 AM 59.0 °F 59.0 °F 100% 30.33 in 1.0 mi SW 5.8 mph - N/A   Mist
8:36 AM 59.0 °F 59.0 °F 100% 30.33 in 1.0 mi SW 6.9 mph - N/A   Overcast
8:38 AM 59.0 °F 59.0 °F 100% 30.33 in 1.2 mi SW 4.6 mph - N/A   Overcast
8:45 AM 59.0 °F 59.0 °F 100% 30.34 in 1.5 mi SW 5.8 mph - N/A   Overcast
8:49 AM 59.0 °F 59.0 °F 100% 30.34 in 1.7 mi SW 5.8 mph - N/A   Overcast
8:50 AM 59.0 °F 59.0 °F 100% 30.34 in - SW 5.8 mph - N/A   Overcast
8:53 AM 59.0 °F 59.0 °F 100% 30.34 in 2.5 mi SW 6.9 mph - N/A   Overcast
8:56 AM 59.0 °F 59.0 °F 100% 30.34 in 3.1 mi WSW 6.9 mph - N/A   Overcast
8:58 AM 59.0 °F 59.0 °F 100% 30.34 in 3.1 mi SW 5.8 mph - N/A   Overcast
9:25 AM 60.8 °F 60.8 °F 100% 30.34 in 6.2 mi SW 6.9 mph - N/A   Overcast
9:58 AM 60.6 °F 60.6 °F 100% 30.35 in 6.2 mi SW 6.9 mph - N/A   Overcast
10:09 AM 60.8 °F 60.8 °F 100% 30.34 in 6.2 mi WSW 6.9 mph - N/A   Overcast
10:21 AM 62.6 °F 62.6 °F 100% 30.34 in 6.2 mi SW 6.9 mph - N/A   Overcast
10:38 AM 62.6 °F 62.6 °F 100% 30.34 in 6.2 mi SW 5.8 mph - N/A   Overcast
10:53 AM 62.6 °F 62.6 °F 100% 30.34 in 6.2 mi SW 8.1 mph - N/A   Overcast
10:58 AM 62.8 °F 62.8 °F 100% 30.35 in 6.2 mi SW 6.9 mph - N/A   Overcast
11:04 AM 62.6 °F 62.6 °F 100% 30.34 in 6.2 mi SW 6.9 mph - N/A   Overcast
11:58 AM 66.4 °F 62.4 °F 87% 30.35 in 6.2 mi WSW 8.1 mph - N/A   Overcast
12:10 PM 66.2 °F 62.6 °F 88% 30.34 in 6.2 mi SW 8.1 mph - N/A   Overcast
12:47 PM 68.0 °F 60.8 °F 78% 30.33 in 6.2 mi South 4.6 mph - N/A   Mostly Cloudy
12:58 PM 68.9 °F 60.3 °F 74% 30.34 in 6.2 mi SW 11.5 mph - N/A   Mostly Cloudy
1:04 PM 71.6 °F 60.8 °F 69% 30.32 in 6.2 mi SW 10.4 mph - N/A   Mostly Cloudy
1:05 PM 71.6 °F 60.8 °F 69% 30.33 in 6.2 mi WSW 10.4 mph - N/A   Scattered Clouds
1:44 PM 69.8 °F 60.8 °F 73% 30.32 in 6.2 mi West 8.1 mph - N/A   Mostly Cloudy
1:58 PM 71.4 °F 59.9 °F 67% 30.33 in 6.2 mi WNW 5.8 mph - N/A   Mostly Cloudy
2:40 PM 73.4 °F 59.0 °F 61% 30.31 in 6.2 mi WSW 9.2 mph - N/A   Mostly Cloudy
2:43 PM 71.6 °F 59.0 °F 64% 30.31 in 6.2 mi WSW 11.5 mph - N/A   Mostly Cloudy
2:45 PM 73.4 °F 57.2 °F 57% 30.31 in 6.2 mi West 10.4 mph - N/A   Scattered Clouds
2:58 PM 74.1 °F 58.5 °F 58% 30.33 in 6.2 mi WSW 10.4 mph - N/A   Scattered Clouds
3:58 PM 73.8 °F 57.6 °F 57% 30.32 in 6.2 mi West 10.4 mph - N/A   Mostly Cloudy
4:58 PM 71.6 °F 56.8 °F 60% 30.32 in 6.2 mi WNW 6.9 mph - N/A   Scattered Clouds
5:58 PM 71.2 °F 56.5 °F 60% 30.31 in 6.2 mi WSW 6.9 mph - N/A   Clear
6:58 PM 65.8 °F 56.8 °F 73% 30.31 in 6.2 mi WSW 5.8 mph - N/A   Clear
7:58 PM 61.7 °F 57.2 °F 85% 30.32 in 6.2 mi SW 3.5 mph - N/A   Clear
8:58 PM 58.5 °F 56.1 °F 92% 30.33 in 6.2 mi Variable 1.2 mph - N/A   Clear
9:58 PM 56.1 °F 55.4 °F 97% 30.33 in 6.2 mi South 3.5 mph - N/A   Clear
10:58 PM 57.6 °F 57.6 °F 100% 30.33 in 6.2 mi SSE 4.6 mph - N/A   Clear
11:58 PM 56.3 °F 56.3 °F 100% 30.33 in 6.2 mi South 2.3 mph - N/A   Clear